Location: Vancouver
(49.2500°N, 123.1330°W)
Time: 19:58:26

ISS - Visible Passes

Search period start: 26 October 2016 00:00
Search period end: 05 November 2016 00:00
Orbit: 400 x 408 km, 51.6° (Epoch: 27 October)

Date Brightness Start Highest point End Pass type
(mag) Time Alt. Az. Time Alt. Az. Time Alt. Az.
01 Nov -0.6 07:15:59 10° S 07:18:28 20° SE 07:20:56 10° E visible
02 Nov -0.2 06:24:48 10° SSE 06:26:14 12° SE 06:27:39 10° ESE visible
03 Nov -1.9 07:06:41 10° SW 07:09:44 37° SSE 07:12:47 10° E visible
04 Nov -1.2 06:15:13 13° SSW 06:17:22 23° SE 06:20:04 10° E visible
